H1 CPF 2 NER 2021 6 20 9 171 01 glonass140 H2 1903001 9140 44299 2021 6 20 0 0 0 2021 6 23 23 45 0 900 1 1 0 0 0 1 H9 10 0 59385 0.00000 0 17813639.369 4276175.275 17770392.255 10 0 59385 900.00000 0 15576372.901 4827285.512 19637303.935 10 0 59385 1800.00000 0 13191434.569 5609268.044 21123602.311 10 0 59385 2700.00000 0 10725501.770 6625378.733 22200624.683 10 0 59385 3600.00000 0 8246046.523 7866526.918 22847632.296 10 0 59385 4500.00000 0 5818713.346 9311480.268 23052198.108 10 0 59385 5400.00000 0 3504788.846 10927589.183 22810436.688 10 0 59385 6300.00000 0 1358866.212 12672001.155 22127072.735 10 0 59385 7200.00000 0 -573200.361 14493315.307 21015347.471 10 0 59385 8100.00000 0 -2255968.425 16333609.350 19496764.801 10 0 59385 9000.00000 0 -3665639.574 18130756.019 17600681.722 10 0 59385 9900.00000 0 -4790801.452 19820933.884 15363750.135 10 0 59385 10800.00000 0 -5632649.812 21341229.362 12829219.718 10 0 59385 11700.00000 0 -6204682.086 22632222.556 10046113.999 10 0 59385 12600.00000 0 -6531875.664 23640449.727 7068294.287 10 0 59385 13500.00000 0 -6649385.379 24320639.843 3953428.276 10 0 59385 14400.00000 0 -6600814.795 24637631.464 761882.209 10 0 59385 15300.00000 0 -6436133.758 24567889.022 -2444442.651 10 0 59385 16200.00000 0 -6209329.828 24100553.867 -5603307.153 10 0 59385 17100.00000 0 -5975892.665 23237984.580 -8653341.953 10 0 59385 18000.00000 0 -5790237.859 21995762.277 -11535242.071 10 0 59385 18900.00000 0 -5703179.646 20402159.000 -14192924.730 10 0 59385 19800.00000 0 -5759560.243 18497089.828 -16574627.436 10 0 59385 20700.00000 0 -5996137.214 16330591.221 -18633924.149 10 0 59385 21600.00000 0 -6439819.644 13960888.110 -20330639.119 10 0 59385 22500.00000 0 -7106329.318 11452129.729 -21631639.840 10 0 59385 23400.00000 0 -7999345.180 8871888.352 -22511492.934 10 0 59385 24300.00000 0 -9110168.990 6288525.147 -22952969.554 10 0 59385 25200.00000 0 -10417927.977 3768533.100 -22947389.846 10 0 59385 26100.00000 0 -11890307.435 1373968.099 -22494799.186 10 0 59385 27000.00000 0 -13484783.643 -839924.464 -21603972.271 10 0 59385 27900.00000 0 -15150306.126 -2826788.423 -20292244.598 10 0 59385 28800.00000 0 -16829358.897 -4550854.068 -18585174.302 10 0 59385 29700.00000 0 -18460314.076 -5988183.333 -16516040.885 10 0 59385 30600.00000 0 -19979978.581 -7127411.550 -14125190.610 10 0 59385 31500.00000 0 -21326226.128 -7969955.722 -11459241.744 10 0 59385 32400.00000 0 -22440603.029 -8529682.174 -8570165.687 10 0 59385 33300.00000 0 -23270797.319 -8832049.409 -5514262.717 10 0 59385 34200.00000 0 -23772866.528 -8912764.393 -2351053.436 10 0 59385 35100.00000 0 -23913129.833 -8816011.281 857891.338 10 0 59385 36000.00000 0 -23669644.818 -8592329.596 4050158.287 10 0 59385 36900.00000 0 -23033206.867 -8296233.642 7163712.215 10 0 59385 37800.00000 0 -22007829.768 -7983675.520 10138105.007 10 0 59385 38700.00000 0 -20610688.143 -7709460.343 12915648.919 10 0 59385 39600.00000 0 -18871525.142 -7524723.632 15442531.244 10 0 59385 40500.00000 0 -16831551.188 -7474577.714 17669849.090 10 0 59385 41400.00000 0 -14541880.655 -7596026.188 19554545.051 10 0 59385 42300.00000 0 -12061572.296 -7916233.761 21060226.747 10 0 59385 43200.00000 0 -9455355.133 -8451223.475 22157855.844 10 0 59385 44100.00000 0 -6791133.993 -9205055.272 22826294.816 10 0 59385 45000.00000 0 -4137377.464 -10169519.681 23052702.346 10 0 59385 45900.00000 0 -1560495.224 -11324359.150 22832771.089 10 0 59385 46800.00000 0 877688.233 -12638007.786 22170804.214 10 0 59385 47700.00000 0 3122260.651 -14068819.069 21079629.772 10 0 59385 48600.00000 0 5127255.400 -15566731.130 19580354.692 10 0 59385 49500.00000 0 6857308.751 -17075301.285 17701962.736 10 0 59385 50400.00000 0 8288873.826 -18534026.174 15480763.420 10 0 59385 51300.00000 0 9410942.063 -19880852.021 12959701.445 10 0 59385 52200.00000 0 10225243.135 -21054771.339 10187538.660 10 0 59385 53100.00000 0 10745915.449 -21998398.344 7217923.097 10 0 59385 54000.00000 0 10998661.292 -22660415.808 4108361.781 10 0 59385 54900.00000 0 11019421.998 -22997790.839 919116.134 10 0 59385 55800.00000 0 10852628.576 -22977666.107 -2287959.363 10 0 59385 56700.00000 0 10549101.245 -22578846.201 -5450613.258 10 0 59385 57600.00000 0 10163686.251 -21792815.268 -8507404.888 10 0 59385 58500.00000 0 9752729.736 -20624241.486 -11398900.187 10 0 59385 59400.00000 0 9371495.659 -19090945.321 -14068831.901 10 0 59385 60300.00000 0 9071637.442 -17223330.940 -16465201.137 10 0 59385 61200.00000 0 8898831.074 -15063302.841 -18541298.050 10 0 59385 62100.00000 0 8890670.826 -12662711.473 -20256621.113 10 0 59385 63000.00000 0 9074917.807 -10081391.547 -21577676.361 10 0 59385 63900.00000 0 9468176.781 -7384874.150 -22478640.292 10 0 59385 64800.00000 0 10075058.587 -4641867.548 -22941872.873 10 0 59385 65700.00000 0 10887864.988 -1921611.472 -22958270.076 10 0 59385 66600.00000 0 11886810.501 708784.769 -22527448.447 10 0 59385 67500.00000 0 13040772.969 3186909.294 -21657757.685 10 0 59385 68400.00000 0 14308542.043 5457412.633 -20366120.525 10 0 59385 69300.00000 0 15640513.373 7474071.904 -18677702.776 10 0 59385 70200.00000 0 16980757.190 9201468.155 -16625419.825 10 0 59385 71100.00000 0 18269373.826 10616207.265 -14249289.249 10 0 59385 72000.00000 0 19445036.233 11707634.035 -11595642.544 10 0 59385 72900.00000 0 20447611.512 12478010.835 -8716211.895 10 0 59385 73800.00000 0 21220749.951 12942154.978 -5667110.583 10 0 59385 74700.00000 0 21714331.490 13126552.013 -2507728.043 10 0 59385 75600.00000 0 21886665.695 13067984.580 700437.780 10 0 59385 76500.00000 0 21706352.008 12811736.945 3894986.852 10 0 59385 77400.00000 0 21153721.746 12409453.236 7013837.570 10 0 59385 78300.00000 0 20221801.311 11916741.816 9996436.815 10 0 59385 79200.00000 0 18916756.608 11390628.544 12784935.494 10 0 59385 80100.00000 0 17257800.690 10886967.547 15325306.518 10 0 59385 81000.00000 0 15276569.296 10457919.253 17568383.932 10 0 59385 81900.00000 0 13015991.054 10149602.000 19470803.814 10 0 59385 82800.00000 0 10528700.056 10000015.602 20995829.827 10 0 59385 83700.00000 0 7875057.069 10037323.356 22114048.918 10 0 59385 84600.00000 0 5120861.313 10278563.658 22803925.272 10 0 59385 85500.00000 0 2334847.160 10728844.273 23052203.303 10 0 59386 0.00000 0 -413931.721 11381052.157 22854153.294 10 0 59386 900.00000 0 -3058724.038 12216090.843 22213655.856 10 0 59386 1800.00000 0 -5537601.627 13203634.507 21143124.385 10 0 59386 2700.00000 0 -7795776.426 14303368.963 19663266.832 10 0 59386 3600.00000 0 -9787620.461 15466667.121 17802691.293 10 0 59386 4500.00000 0 -11478305.837 16638630.752 15597362.107 10 0 59386 5400.00000 0 -12844998.553 17760414.034 13089915.965 10 0 59386 6300.00000 0 -13877557.381 18771732.888 10328849.865 10 0 59386 7200.00000 0 -14578709.283 19613455.939 7367595.345 10 0 59386 8100.00000 0 -14963694.397 20230169.131 4263495.612 10 0 59386 9000.00000 0 -15059395.440 20572606.558 1076704.226 10 0 59386 9900.00000 0 -14902987.815 20599845.102 -2130973.999 10 0 59386 10800.00000 0 -14540166.939 20281169.825 -5297277.986 10 0 59386 11700.00000 0 -14023027.106 19597530.351 -8360698.222 10 0 59386 12600.00000 0 -13407681.187 18542525.359 -11261673.761 10 0 59386 13500.00000 0 -12751721.638 17122871.800 -13943754.805 10 0 59386 14400.00000 0 -12111630.344 15358337.020 -16354707.695 10 0 59386 15300.00000 0 -11540247.199 13281134.558 -18447540.087 10 0 59386 16200.00000 0 -11084405.172 10934806.980 -20181425.674 10 0 59386 17100.00000 0 -10782832.684 8372640.756 -21522509.721 10 0 59386 18000.00000 0 -10664413.002 5655678.159 -22444578.998 10 0 59386 18900.00000 0 -10746875.274 2850408.160 -22929582.402 10 0 59386 19800.00000 0 -11035973.600 26232.010 -22967991.537 10 0 59386 20700.00000 0 -11525189.805 -2747191.077 -22558993.625 10 0 59386 21600.00000 0 -12195973.331 -5402607.570 -21710512.531 10 0 59386 22500.00000 0 -13018508.715 -7877731.558 -20439057.054 10 0 59386 23400.00000 0 -13952978.612 -10117597.904 -18769399.151 10 0 59386 24300.00000 0 -14951269.020 -12076608.495 -16734088.236 10 0 59386 25200.00000 0 -15959044.417 -13720186.270 -14372811.061 10 0 59386 26100.00000 0 -16918104.500 -15025968.350 -11731609.986 10 0 59386 27000.00000 0 -17768922.125 -15984489.195 -8861975.456 10 0 59386 27900.00000 0 -18453254.199 -16599326.497 -5819831.135 10 0 59386 28800.00000 0 -18916714.154 -16886705.333 -2664432.609 10 0 59386 29700.00000 0 -19111196.373 -16874579.333 542797.758 10 0 59386 30600.00000 0 -18997049.438 -16601229.783 3739475.926 10 0 59386 31500.00000 0 -18544906.021 -16113443.972 6863476.592 10 0 59386 32400.00000 0 -17737092.133 -15464351.786 9854144.300 10 0 59386 33300.00000 0 -16568556.548 -14711013.593 12653471.184 10 0 59386 34200.00000 0 -15047281.779 -13911862.494 15207218.217 10 0 59386 35100.00000 0 -13194159.878 -13124109.591 17465958.601 10 0 59386 36000.00000 0 -11042338.827 -12401221.687 19386023.818 10 0 59386 36900.00000 0 -8636067.222 -11790577.234 20930335.134 10 0 59386 37800.00000 0 -6029085.578 -11331398.194 22069105.909 10 0 59386 38700.00000 0 -3282630.853 -11053043.482 22780402.722 10 0 59386 39600.00000 0 -463136.496 -10973734.306 23050555.956 10 0 59386 40500.00000 0 2360277.755 -11099763.573 22874413.286 10 0 59386 41400.00000 0 5118423.862 -11425221.493 22255432.221 10 0 59386 42300.00000 0 7744664.502 -11932248.248 21205610.492 10 0 59386 43200.00000 0 10177426.681 -12591802.971 19745255.795 10 0 59386 44100.00000 0 12362507.687 -13364917.136 17902598.960 10 0 59386 45000.00000 0 14255079.487 -14204380.551 15713257.279 10 0 59386 45900.00000 0 15821309.867 -15056790.251 13219557.270 10 0 59386 46800.00000 0 17039534.017 -15864877.465 10469728.649 10 0 59386 47700.00000 0 17900928.427 -16570015.992 7516983.785 10 0 59386 48600.00000 0 18409659.333 -17114807.429 4418499.169 10 0 59386 49500.00000 0 18582499.507 -17445634.962 1234317.471 10 0 59386 50400.00000 0 18447929.166 -17515078.242 -1973809.267 10 0 59386 51300.00000 0 18044758.390 -17284087.100 -5143613.412 10 0 59386 52200.00000 0 17420328.565 -16723821.499 -8213519.551 10 0 59386 53100.00000 0 16628368.217 -15817078.675 -11123842.623 10 0 59386 54000.00000 0 15726593.427 -14559245.493 -13817952.806 10 0 59386 54900.00000 0 14774154.056 -12958733.754 -16243383.932 10 0 59386 55800.00000 0 13829033.768 -11036877.917 -18352863.123 10 0 59386 56700.00000 0 12945514.058 -8827297.285 -20105240.946 10 0 59386 57600.00000 0 12171809.930 -6374747.300 -21466303.215 10 0 59386 58500.00000 0 11547977.805 -3733506.298 -22409447.928 10 0 59386 59400.00000 0 11104184.762 -965363.724 -22916213.482 10 0 59386 60300.00000 0 10859412.933 1862707.268 -22976647.292 10 0 59386 61200.00000 0 10820654.495 4681096.294 -22589507.041 10 0 59386 62100.00000 0 10982631.786 7420215.445 -21762290.161 10 0 59386 63000.00000 0 11328054.745 10013161.430 -20511090.538 10 0 59386 63900.00000 0 11828404.923 12398268.913 -18860284.934 10 0 59386 64800.00000 0 12445212.778 14521448.438 -16842055.108 10 0 59386 65700.00000 0 13131773.815 16338211.276 -14495754.941 10 0 59386 66600.00000 0 13835230.253 17815296.648 -11867135.279 10 0 59386 67500.00000 0 14498929.209 18931833.786 -9007442.113 10 0 59386 68400.00000 0 15064956.478 19679991.038 -5972406.487 10 0 59386 69300.00000 0 15476737.491 20065086.090 -2821146.894 10 0 59386 70200.00000 0 15681594.278 20105154.439 384993.262 10 0 59386 71100.00000 0 15633149.301 19829996.282 3583649.364 10 0 59386 72000.00000 0 15293473.859 19279744.159 6712655.770 10 0 59386 72900.00000 0 14634889.905 18503013.810 9711257.882 10 0 59386 73800.00000 0 13641349.229 17554718.139 12521292.003 10 0 59386 74700.00000 0 12309332.087 16493637.889 15088309.799 10 0 59386 75600.00000 0 10648227.901 15379852.395 17362625.906 10 0 59386 76500.00000 0 8680182.419 14272138.889 19300269.118 10 0 59386 77400.00000 0 6439418.118 13225449.549 20863819.811 10 0 59386 78300.00000 0 3971056.300 12288571.455 22023118.863 10 0 59386 79200.00000 0 1329489.708 11502066.422 22755835.916 10 0 59386 80100.00000 0 -1423627.222 10896575.622 23047887.514 10 0 59386 81000.00000 0 -4221688.091 10491558.409 22893698.441 10 0 59386 81900.00000 0 -6995649.954 10294516.732 22296302.247 10 0 59386 82800.00000 0 -9676651.774 10300736.403 21267279.651 10 0 59386 83700.00000 0 -12198629.400 10493555.327 19826536.188 10 0 59386 84600.00000 0 -14500820.644 10845147.150 18001923.028 10 0 59386 85500.00000 0 -16530058.249 11317787.680 15828707.596 10 0 59387 0.00000 0 -18242757.194 11865551.530 13348903.169 10 0 59387 900.00000 0 -19606514.711 12436368.571 10610468.721 10 0 59387 1800.00000 0 -20601257.684 12974354.807 7666394.102 10 0 59387 2700.00000 0 -21219888.717 13422320.189 4573685.706 10 0 59387 3600.00000 0 -21468405.358 13724348.749 1392272.054 10 0 59387 4500.00000 0 -21365485.929 13828342.192 -1816150.644 10 0 59387 5400.00000 0 -20941559.425 13688419.607 -4989311.056 10 0 59387 6300.00000 0 -20237397.771 13267071.196 -8065570.463 10 0 59387 7200.00000 0 -19302289.102 12536973.931 -10985122.043 10 0 59387 8100.00000 0 -18191868.555 11482390.837 -13691158.016 10 0 59387 9000.00000 0 -16965697.661 10100092.816 -16130981.457 10 0 59387 9900.00000 0 -15684694.341 8399762.002 -18257040.373 10 0 59387 10800.00000 0 -14408521.990 6403857.255 -20027863.249 10 0 59387 11700.00000 0 -13193048.052 4146945.169 -21408877.135 10 0 59387 12600.00000 0 -12087979.707 1674522.556 -22373091.569 10 0 59387 13500.00000 0 -11134776.871 -958622.081 -22901634.403 10 0 59387 14400.00000 0 -10364931.003 -3690441.023 -22984128.481 10 0 59387 15300.00000 0 -9798682.786 -6453969.809 -22618901.222 10 0 59387 16200.00000 0 -9444233.052 -9179882.530 -21813022.575 10 0 59387 17100.00000 0 -9297480.388 -11799153.607 -20582170.155 10 0 59387 18000.00000 0 -9342296.390 -14245714.870 -18950323.880 10 0 59387 18900.00000 0 -9551326.580 -16458996.863 -16949295.932 10 0 59387 19800.00000 0 -9887282.466 -18386248.047 -14618105.194 10 0 59387 20700.00000 0 -10304669.202 -19984534.762 -12002208.702 10 0 59387 21600.00000 0 -10751874.594 -21222338.403 -9152605.603 10 0 59387 22500.00000 0 -11173529.692 -22080683.435 -6124831.877 10 0 59387 23400.00000 0 -11513039.617 -22553749.726 -2977866.490 10 0 59387 24300.00000 0 -11715176.107 -22648944.885 227028.544 10 0 59387 25200.00000 0 -11728620.777 -22386435.231 3427510.441 10 0 59387 26100.00000 0 -11508350.522 -21798157.069 6561375.598 10 0 59387 27000.00000 0 -11017763.536 -20926351.957 9567772.632 10 0 59387 27900.00000 0 -10230455.826 -19821689.559 12388384.328 10 0 59387 28800.00000 0 -9131573.305 -18541058.757 14968555.278 10 0 59387 29700.00000 0 -7718682.767 -17145121.173 17258343.646 10 0 59387 30600.00000 0 -6002125.432 -15695730.550 19213477.436 10 0 59387 31500.00000 0 -4004838.605 -14253326.402 20796197.778 10 0 59387 32400.00000 0 -1761653.003 -12874410.641 21975974.393 10 0 59387 33300.00000 0 681905.115 -11609211.787 22730080.965 10 0 59387 34200.00000 0 3271257.561 -10499633.012 23044020.818 10 0 59387 35100.00000 0 5944796.233 -9577568.132 22911796.090 10 0 59387 36000.00000 0 8636200.889 -8863654.128 22336016.258 10 0 59387 36900.00000 0 11276958.112 -8366510.824 21327844.574 10 0 59387 37800.00000 0 13798978.858 -8082498.176 19906783.620 10 0 59387 38700.00000 0 16137207.978 -7996000.490 18100303.806 10 0 59387 39600.00000 0 18232119.155 -8080225.309 15943321.265 10 0 59387 40500.00000 0 20031993.247 -8298483.520 13477534.152 10 0 59387 41400.00000 0 21494886.542 -8605897.413 10750628.854 10 0 59387 42300.00000 0 22590207.675 -8951465.562 7815370.155 10 0 59387 43200.00000 0 23299837.827 -9280398.372 4728591.627 10 0 59387 44100.00000 0 23618747.359 -9536626.501 1550104.653 10 0 59387 45000.00000 0 23555082.575 -9665376.751 -1658453.569 10 0 59387 45900.00000 0 23129718.415 -9615706.662 -4834811.245 10 0 59387 46800.00000 0 22375294.984 -9342890.284 -7917269.573 10 0 59387 47700.00000 0 21334777.638 -8810553.393 -10845903.030 10 0 59387 48600.00000 0 20059600.451 -7992466.529 -13563728.720 10 0 59387 49500.00000 0 18607470.603 -6873918.292 -16017821.527 10 0 59387 50400.00000 0 17039925.771 -5452608.863 -18160352.604 10 0 59387 51300.00000 0 15419747.228 -3739023.756 -19949530.312 10 0 59387 52200.00000 0 13808337.559 -1756269.662 -21350424.563 10 0 59387 53100.00000 0 12263173.663 460622.915 -22335657.739 10 0 59387 54000.00000 0 10835442.504 2865903.094 -22885948.109 10 0 59387 54900.00000 0 9567959.451 5404760.433 -22990494.536 10 0 59387 55800.00000 0 8493457.130 8015374.897 -22647194.395 10 0 59387 56700.00000 0 7633316.963 10631271.212 -21862689.980 10 0 59387 57600.00000 0 6996796.773 13183879.724 -20652242.050 10 0 59387 58500.00000 0 6580786.773 15605196.817 -19039432.687 10 0 59387 59400.00000 0 6370103.638 17830433.600 -17055703.090 10 0 59387 60300.00000 0 6338309.443 19800541.866 -14739735.325 10 0 59387 61200.00000 0 6449019.737 21464511.235 -12136690.390 10 0 59387 62100.00000 0 6657644.095 22781341.182 -9297317.979 10 0 59387 63000.00000 0 6913483.949 23721605.371 -6276956.050 10 0 59387 63900.00000 0 7162097.258 24268543.082 -3134440.798 10 0 59387 64800.00000 0 7347828.258 24418632.802 69050.592 10 0 59387 65700.00000 0 7416393.639 24181625.165 3271200.697 10 0 59387 66600.00000 0 7317414.454 23580035.432 6409771.469 10 0 59387 67500.00000 0 7006785.655 22648118.740 9423818.129 10 0 59387 68400.00000 0 6448782.541 21430373.005 12254873.121 10 0 59387 69300.00000 0 5617814.992 19979634.170 14848076.854 10 0 59387 70200.00000 0 4499755.610 18354845.143 17153233.604 10 0 59387 71100.00000 0 3092786.137 16618592.919 19125772.809 10 0 59387 72000.00000 0 1407726.972 14834517.442 20727598.217 10 0 59387 72900.00000 0 -532163.841 13064700.357 21927809.870 10 0 59387 73800.00000 0 -2691913.792 11367141.895 22703286.563 10 0 59387 74700.00000 0 -5026051.373 9793429.952 23039119.021 10 0 59387 75600.00000 0 -7480264.007 8386696.864 22928886.870 10 0 59387 76500.00000 0 -9993430.656 7179947.228 22374775.132 10 0 59387 77400.00000 0 -12499946.090 6194824.680 21387528.651 10 0 59387 78300.00000 0 -14932242.081 5440867.386 19986245.553 10 0 59387 79200.00000 0 -17223402.720 4915282.033 18198013.429 10 0 59387 80100.00000 0 -19309766.983 4603244.859 16057394.552 10 0 59387 81000.00000 0 -21133411.994 4478716.718 13605769.024 10 0 59387 81900.00000 0 -22644414.991 4505737.956 10890547.204 10 0 59387 82800.00000 0 -23802800.524 4640149.089 7964265.343 10 0 59387 83700.00000 0 -24580092.084 4831665.420 4883580.580 10 0 59387 84600.00000 0 -24960403.257 5026218.731 1708183.572 10 0 59387 85500.00000 0 -24941022.193 5168467.752 -1500350.955 10 0 59388 0.00000 0 -24532464.221 5204371.571 -4679753.973 10 0 59388 900.00000 0 -23757989.097 5083716.673 -7768269.790 10 0 59388 1800.00000 0 -22652602.813 4762491.198 -10705856.942 10 0 59388 2700.00000 0 -21261583.802 4205003.068 -13435359.943 10 0 59388 3600.00000 0 -19638595.663 3385652.864 -15903627.693 10 0 59388 4500.00000 0 -17843464.437 2290283.359 -18062556.312 10 0 59388 5400.00000 0 -15939713.685 917047.163 -19870035.428 10 0 59388 6300.00000 0 -13991960.687 -723246.551 -21290778.736 10 0 59388 7200.00000 0 -12063283.186 -2607323.089 -22297021.884 10 0 59388 8100.00000 0 -10212667.415 -4700165.171 -22869073.486 10 0 59388 9000.00000 0 -8492644.739 -6956239.376 -22995707.883 10 0 59388 9900.00000 0 -6947216.410 -9321176.187 -22674391.419 10 0 59388 10800.00000 0 -5610153.643 -11733834.422 -21911337.353 10 0 59388 11700.00000 0 -4503744.348 -14128664.397 -20721387.872 10 0 59388 12600.00000 0 -3638038.919 -16438271.133 -19127725.219 10 0 59388 13500.00000 0 -3010626.178 -18596070.318 -17161417.378 10 0 59388 14400.00000 0 -2606947.962 -20538925.559 -14860807.201 10 0 59388 15300.00000 0 -2401137.887 -22209655.919 -12270757.153 10 0 59388 16200.00000 0 -2357347.335 -23559308.306 -9441764.946 10 0 59388 17100.00000 0 -2431500.853 -24549099.089 -6428968.017 10 0 59388 18000.00000 0 -2573404.931 -25151943.472 -3291057.349 10 0 59388 18900.00000 0 -2729118.946 -25353508.789 -89122.955 10 0 59388 19800.00000 0 -2843486.159 -25152748.287 3114545.349 10 0 59388 20700.00000 0 -2862716.059 -24561894.134 6257677.219 10 0 59388 21600.00000 0 -2736907.522 -23605911.471 9279236.537 10 0 59388 22500.00000 0 -2422405.275 -22321438.069 12120607.377 10 0 59388 23400.00000 0 -1883889.651 -20755255.770 14726727.843 10 0 59388 24300.00000 0 -1096111.454 -18962359.244 17047150.069 10 0 59388 25200.00000 0 -45199.030 -17003704.015 19037006.531 10 0 59388 26100.00000 0 1270517.014 -14943728.532 20657864.992 10 0 59388 27000.00000 0 2840195.713 -12847753.803 21878456.988 10 0 59388 27900.00000 0 4640707.041 -10779368.385 22675267.347 10 0 59388 28800.00000 0 6637373.392 -8797906.620 23032974.847 10 0 59388 29700.00000 0 8785200.852 -6956123.489 22944736.992 10 0 59388 30600.00000 0 11030549.886 -5298160.922 22412314.459 10 0 59388 31500.00000 0 13313177.119 -3857888.311 21446033.538 10 0 59388 32400.00000 0 15568564.923 -2657684.337 20064587.494 10 0 59388 33300.00000 0 17730443.716 -1707709.218 18294680.428 10 0 59388 34200.00000 0 19733403.776 -1005696.477 16170519.809 10 0 59388 35100.00000 0 21515489.561 -537272.025 13733166.441 10 0 59388 36000.00000 0 23020669.831 -276786.792 11029753.087 10 0 59388 36900.00000 0 24201081.464 -188627.968 8112585.561 10 0 59388 37800.00000 0 25018953.776 -228954.001 5038142.316 10 0 59388 38700.00000 0 25448132.866 -347780.747 1865990.718 10 0 59388 39600.00000 0 25475141.645 -491331.230 -1342359.820 10 0 59388 40500.00000 0 25099730.288 -604550.083 -4524646.188 10 0 59388 41400.00000 0 24334892.824 -633676.387 -7619058.649 10 0 59388 42300.00000 0 23206347.888 -528765.750 -10565442.982 10 0 59388 43200.00000 0 21751504.143 -246054.145 -13306474.074 10 0 59388 44100.00000 0 20017952.553 249937.706 -15788777.581 10 0 59388 45000.00000 0 18061547.871 984649.913 -17963977.104 10 0 59388 45900.00000 0 15944159.072 1972155.012 -19789645.798 10 0 59388 46800.00000 0 13731182.612 3214313.724 -21230143.144 10 0 59388 47700.00000 0 11488922.600 4700452.634 -22257319.804 10 0 59388 48600.00000 0 9281947.651 6407579.473 -22851076.208 10 0 59388 49500.00000 0 7170535.217 8301128.963 -22999763.344 10 0 59388 50400.00000 0 5208310.719 10336209.502 -22700417.361 10 0 59388 51300.00000 0 3440180.395 12459299.687 -21958822.927 10 0 59388 52200.00000 0 1900644.482 14610324.459 -20789403.676 10 0 59388 53100.00000 0 612561.226 16725024.184 -19214941.568 10 0 59388 54000.00000 0 -413586.984 18737517.452 -17266130.461 10 0 59388 54900.00000 0 -1179895.457 20582949.855 -14980972.597 10 0 59388 55800.00000 0 -1700699.704 22200117.084 -12404030.052 10 0 59388 56700.00000 0 -2001714.457 23533951.686 -9585546.262 10 0 59388 57600.00000 0 -2118687.365 24537768.519 -6580455.454 10 0 59388 58500.00000 0 -2095626.239 25175174.201 -3447300.397 10 0 59388 59400.00000 0 -1982676.915 25421560.271 -247080.676 10 0 59388 60300.00000 0 -1833743.538 25265117.642 2957944.893 10 0 59388 61200.00000 0 -1703953.793 24707330.435 6105477.127 10 0 59388 62100.00000 0 -1647077.856 23762929.536 9134391.983 10 0 59388 63000.00000 0 -1713011.367 22459309.164 11985928.462 10 0 59388 63900.00000 0 -1945429.400 20835432.373 14604825.473 10 0 59388 64800.00000 0 -2379710.734 18940272.705 16940385.897 10 0 59388 65700.00000 0 -3041219.737 16830858.284 18947447.869 10 0 59388 66600.00000 0 -3944017.810 14570000.810 20587245.519 10 0 59388 67500.00000 0 -5090057.996 12223804.350 21828143.922 10 0 59388 68400.00000 0 -6468896.163 9859057.274 22646235.637 10 0 59388 69300.00000 0 -8057930.603 7540614.952 23025788.816 10 0 59388 70200.00000 0 -9823160.220 5328880.542 22959539.721 10 0 59388 71100.00000 0 -11720430.220 3277486.662 22448825.080 10 0 59388 72000.00000 0 -13697114.289 1431272.346 21503552.477 10 0 59388 72900.00000 0 -15694164.540 -175362.749 20142009.583 10 0 59388 73800.00000 0 -17648445.422 -1519660.338 18390515.677 10 0 59388 74700.00000 0 -19495256.022 -2591213.179 16282921.507 10 0 59388 75600.00000 0 -21170937.287 -3392154.084 13859966.114 10 0 59388 76500.00000 0 -22615456.850 -3936817.143 11168501.734 10 0 59388 77400.00000 0 -23774864.551 -4250885.663 8260600.437 10 0 59388 78300.00000 0 -24603516.622 -4370062.586 5192558.421 10 0 59388 79200.00000 0 -25065975.557 -4338319.055 2023816.029 10 0 59388 80100.00000 0 -25138505.577 -4205794.502 -1184186.414 10 0 59388 81000.00000 0 -24810100.139 -4026436.558 -4369195.403 10 0 59388 81900.00000 0 -24082997.075 -3855480.327 -7469350.920 10 0 59388 82800.00000 0 -22972658.250 -3746873.711 -10424389.422 10 0 59388 83700.00000 0 -21507213.019 -3750758.208 -13176819.406 10 0 59388 84600.00000 0 -19726387.272 -3911112.627 -15673046.251 10 0 59388 85500.00000 0 -17679961.673 -4263660.607 -17864423.617 99